Location: Czu?�w
(50.1404°N, 18.9919°E)
Time: 03:21:38
(UTC+00:00)

BREEZE-M R/B - Pass Details

Date: 27 October 2020
Orbit: 282 x 23020 km, 49.2° (Epoch: 24 November)

Event Time Altitude Azimuth Distance (km) Brightness Sun altitude
Rises 17:20:14 0° 275° (W) 6,437 10.5 -18.4°
Reaches altitude 10° 17:26:23 10° 275° (W) 3,551 8.7 -19.4°
Maximum altitude 17:32:51 73° 191° (S) 547 3.2 -20.4°
Enters shadow 17:33:09 66° 143° (SE) 542 3.0 -20.5°
